Fort Rucker, AL

10:54 PM CDT on September 28, 2016 (GMT -0500)
Fort Rucker / Ozark

Weather History for KLOR - March, 2013

Change the Weather History Date:

Sunday, March 3, 2013

  Actual Average (KDHN) Record (KDHN)
Temperature  
Mean Temperature 39 °F 56 °F  
Max Temperature 48 °F 69 °F 85 °F (1945)
Min Temperature 30 °F 44 °F 23 °F (1947)
Degree Days  
Heating Degree Days 26 9  
Month to date heating degree days 27  
Since 1 July heating degree days 1586  
Cooling Degree Days 0 1  
Month to date cooling degree days 3  
Year to date cooling degree days 13  
Moisture  
Dew Point 23 °F    
Average Humidity 55    
Maximum Humidity 82    
Minimum Humidity 29    
Precipitation  
Precipitation 0.00 in 0.15 in 4.36 in (1934)
Month to date precipitation 0.45  
Year to date precipitation 9.85  
Sea Level Pressure  
Sea Level Pressure 30.13 in    
Wind  
Wind Speed 7 mph (NW)    
Max Wind Speed 14 mph    
Max Gust Speed 21 mph    
T = Trace of Precipitation, MM = Missing Value Source: NWS Daily Summary

Daily Weather History Graph

Daily Weather History Graph

Search for Another Location

Airport or City:

Trip Planner

Search our weather history database for the weather conditions in past years. The results will help you decide how hot, cold, wet, or windy it might be!

Date:

Astronomy

Mar. 03, 2013 Rise Set
Actual Time 6:07 AM CST 5:42 PM CST
Civil Twilight 5:42 AM CST 6:07 PM CST
Nautical Twilight 5:14 AM CST 6:35 PM CST
Astronomical Twilight 4:46 AM CST 7:03 PM CST
Moon 11:59 PM CST (3/3) 9:46 AM CST (3/3)
Length of Visible Light 12h 24m
Length of Day
11h 35m
Waning Gibbous, 63% of the Moon is Illuminated
Mar 3
Waning Gibbous
Mar 4
Last Quarter
Mar 11
New
Mar 19
First Quarter
Mar 27
Full

Hourly Weather History & Observations

Time (CST) Temp. Windchill Dew Point Humidity Pressure Visibility Wind Dir Wind Speed Gust Speed Precip Events Conditions
12:53 AM 37.9 °F 32.7 °F 24.1 °F 57% 30.11 in - NW 6.9 mph - N/A   Overcast
1:53 AM 37.0 °F 29.8 °F 24.1 °F 59% 30.10 in - NW 10.4 mph 17.3 mph N/A   Overcast
2:53 AM 37.0 °F 31.0 °F 25.0 °F 62% 30.10 in - NW 8.1 mph - N/A   Overcast
3:53 AM 36.0 °F 31.1 °F 26.1 °F 67% 30.10 in - NNW 5.8 mph - N/A   Overcast
4:53 AM 36.0 °F 31.1 °F 26.1 °F 67% 30.11 in - NW 5.8 mph - N/A   Overcast
5:53 AM 36.0 °F 30.3 °F 26.1 °F 67% 30.12 in - NW 6.9 mph - N/A   Overcast
6:53 AM 36.0 °F 29.0 °F 26.1 °F 67% 30.14 in - NW 9.2 mph - N/A   Overcast
7:53 AM 37.0 °F 31.6 °F 26.1 °F 65% 30.15 in - NW 6.9 mph - N/A   Overcast
8:53 AM 39.9 °F 36.7 °F 24.1 °F 53% 30.15 in - Variable 4.6 mph - N/A   Mostly Cloudy
9:53 AM 39.9 °F 34.5 °F 23.0 °F 51% 30.16 in - NW 8.1 mph - N/A   Mostly Cloudy
10:53 AM 42.1 °F 35.7 °F 21.0 °F 43% 30.15 in - WNW 11.5 mph 18.4 mph N/A   Mostly Cloudy
11:53 AM 44.1 °F 37.4 °F 21.0 °F 40% 30.12 in - NW 13.8 mph 20.7 mph N/A   Partly Cloudy
12:53 PM 46.0 °F 41.9 °F 21.0 °F 37% 30.10 in - WNW 8.1 mph 17.3 mph N/A   Clear
1:53 PM 48.0 °F - 19.9 °F 33% 30.09 in - NW 11.5 mph 19.6 mph N/A   Clear
2:53 PM 48.9 °F - 18.0 °F 29% 30.08 in - North 12.7 mph 19.6 mph N/A   Clear
3:53 PM 48.9 °F - 18.0 °F 29% 30.09 in - WNW 9.2 mph - N/A   Clear
4:53 PM 48.0 °F - 18.0 °F 30% 30.10 in - NNW 8.1 mph - N/A   Clear
5:53 PM 43.0 °F 40.3 °F 19.9 °F 40% 30.12 in - NNW 4.6 mph - N/A   Clear
6:53 PM 42.1 °F 40.2 °F 19.9 °F 41% 30.13 in - NNW 3.5 mph - N/A   Clear
7:53 PM 37.9 °F 35.5 °F 24.1 °F 57% 30.15 in - West 3.5 mph - N/A   Clear
8:53 PM 33.1 °F - 25.0 °F 72% 30.16 in - Calm Calm - N/A   Clear
9:53 PM 32.0 °F - 26.1 °F 79% 30.17 in - Calm Calm - N/A   Clear
10:53 PM 30.0 °F - 25.0 °F 82% 30.16 in - Calm Calm - N/A   Clear
11:53 PM 30.0 °F - 25.0 °F 82% 30.16 in - Calm Calm - N/A   Clear